Wind_Speed
13 16 17 15 16 14 15 18 15 15 15 14 13 14 14 13 12 12 11 11 11 11 11 10 11 10 10 9 10 12 13 12 12 12 13 14 14 13 13 11 13 13 15
20 20 19 16 15 15 13 19 18 18 19 17 16 16 16 16 16 15 15 15 15 15 14 14 13 12 11 10 11 11 11 11 11 12 12 12 13 14 13 13 13 13 14
20 17 16 14 14 17 18 21 21 20 20 19 18 18 18 17 17 16 15 15 16 16 16 16 16 15 15 14 13 12 12 11 11 13 14 14 14 13 14 14 14 14 15
17 13 13 12 14 17 21 26 24 22 22 20 19 19 18 18 18 17 17 18 19 20 19 19 18 18 18 18 16 15 15 14 14 15 16 16 17 17 17 17 17 17 17
13 13 11 13 16 17 19 23 24 25 26 24 22 21 21 20 21 21 22 24 24 24 24 25 24 24 23 22 21 20 18 16 17 18 17 15 15 17 19 20 22 22 20
10 10 10 12 11 14 16 18 24 26 26 25 23 24 26 24 22 22 28 29 27 27 28 31 33 29 28 25 24 23 19 17 17 20 19 18 16 16 19 23 25 26 25
4 4 7 10 11 17 20 22 26 28 26 26 25 26 31 27 27 28 31 30 26 30 31 32 36 30 32 31 26 22 18 18 19 22 23 21 20 21 23 27 28 29 30
1 3 6 11 14 14 18 22 30 32 29 28 28 27 27 29 29 26 26 25 25 25 28 29 25 23 25 27 25 21 17 22 22 24 25 27 26 28 30 33 32 34 34
4 8 11 14 15 16 13 14 19 25 25 26 24 25 27 27 27 26 23 23 26 26 24 22 24 26 23 23 23 23 23 24 26 28 28 29 31 33 35 37 39 40 38
8 10 13 17 20 21 20 21 21 23 24 25 25 26 27 26 29 30 29 28 27 27 25 25 26 27 26 24 26 25 25 28 32 34 35 35 36 37 39 40 42 43 43
11 12 14 15 18 22 24 24 25 26 27 27 26 27 28 27 27 27 29 30 29 29 29 30 30 29 29 26 26 30 32 32 36 38 39 39 41 42 42 43 44 45 46
13 13 14 15 17 19 21 24 27 28 29 29 30 29 28 27 27 27 28 29 30 30 30 32 33 33 32 32 31 33 37 37 37 39 41 43 45 45 42 43 45 44 45
14 15 16 17 19 20 22 24 27 29 28 28 29 28 27 27 28 28 29 29 30 31 32 33 34 35 35 35 35 36 37 39 40 41 42 44 45 46 45 44 44 45 45
15 16 18 19 21 22 23 25 26 29 29 27 27 27 27 29 30 31 32 32 33 34 35 36 37 37 38 39 39 39 41 41 41 43 44 45 46 47 48 47 48 48 48
18 20 22 24 25 25 26 27 28 29 30 30 30 31 33 34 33 33 33 33 34 35 36 37 38 39 40 41 41 42 42 42 43 44 46 46 48 49 49 50 50 51 51
24 25 26 28 28 27 27 27 28 30 32 33 34 36 37 38 38 38 39 39 39 39 38 38 39 40 42 43 44 45 46 47 48 49 49 49 49 49 50 50 49 51 51
25 26 27 28 29 29 29 30 30 32 34 36 37 39 39 41 42 44 45 46 46 45 45 45 45 46 47 49 50 51 52 53 54 54 53 53 53 52 52 52 51 52 51
25 28 29 30 31 31 28 30 32 34 36 38 37 38 39 40 42 44 46 48 49 49 50 53 56 57 58 60 61 62 62 63 62 62 61 60 60 59 57 56 55 55 55
28 30 29 30 30 27 24 26 29 32 35 36 35 37 40 43 45 47 49 50 51 54 57 59 61 63 63 65 65 65 65 66 65 64 65 65 65 67 66 65 64 61 61
32 33 31 32 34 29 24 25 26 30 31 32 35 38 42 44 47 50 52 52 55 59 61 61 62 62 62 64 65 64 65 67 68 65 63 59 59 62 64 66 69 70 69
35 37 36 37 43 40 30 33 29 28 31 35 37 40 44 48 51 54 56 59 62 63 64 65 64 65 66 69 70 70 69 68 71 71 67 67 67 70 71 69 70 68 68
36 38 37 37 39 46 48 33 34 34 39 43 42 45 48 49 54 59 62 64 67 68 70 72 73 75 76 79 81 82 82 80 80 81 83 83 79 79 79 80 80 76 72
34 36 38 40 41 40 42 43 48 48 52 49 49 50 50 54 59 64 67 70 73 76 78 81 82 84 85 86 87 87 88 88 87 85 84 82 81 81 80 79 75 74 75
34 36 39 42 45 44 50 54 54 53 54 54 54 55 59 63 67 70 73 75 78 79 80 80 81 82 83 82 79 78 78 78 78 79 77 75 70 66 64 61 62 63 67
37 39 42 44 47 49 51 53 55 56 57 58 60 64 67 70 74 76 78 79 80 80 78 76 75 74 73 72 69 67 67 64 63 64 64 59 59 57 56 54 51 51 57
41 43 44 45 47 50 52 54 55 57 59 62 66 69 72 75 77 79 80 81 80 78 75 73 69 67 66 64 64 64 64 64 62 61 61 56 58 60 61 58 54 50 47
Wind_Direction
296 303 295 293 268 252 230 227 238 247 252 251 252 253 250 245 238 231 227 227 230 234 236 236 239 235 234 234 242 252 257 261 266 272 276 278 277 274 270 268 273 276 276
298 302 295 279 263 250 240 233 237 243 245 243 241 241 242 242 243 242 239 236 235 236 234 235 235 236 236 237 238 244 250 256 261 266 270 276 278 277 272 266 264 263 265
293 295 299 275 248 243 249 249 240 239 240 235 230 231 233 236 240 246 250 252 251 248 244 242 239 235 235 238 239 241 247 252 254 256 262 268 272 275 273 270 269 267 265
279 281 288 257 234 232 238 241 235 231 233 232 228 227 230 236 241 244 251 255 254 252 248 242 238 237 238 240 240 241 246 247 246 251 258 262 266 268 270 274 275 270 270
271 271 284 249 234 230 228 218 236 234 231 231 232 230 231 232 237 241 251 258 260 257 251 246 243 241 240 238 240 239 240 245 252 255 258 263 269 272 272 276 280 280 274
266 279 274 252 248 236 230 228 243 236 232 234 238 237 236 229 239 248 255 257 259 261 262 260 255 246 245 245 244 241 240 242 252 259 261 271 278 287 283 279 276 279 279
313 288 243 237 251 238 233 252 250 241 239 243 245 246 253 252 250 249 252 260 258 262 259 267 258 248 246 244 248 244 235 249 258 266 269 280 287 290 287 283 280 280 278
252 220 222 233 251 270 259 245 239 237 240 248 256 255 260 255 249 255 261 279 277 277 260 260 264 259 256 253 254 245 245 250 256 258 269 274 275 278 278 279 278 277 278
266 249 241 245 258 271 286 284 262 254 256 256 266 271 281 285 285 287 287 290 291 282 283 288 282 275 284 279 274 272 267 266 263 264 265 266 267 273 277 277 277 277 279
275 266 257 251 255 263 269 272 271 271 273 275 276 278 281 284 285 295 295 293 291 288 284 283 282 285 290 288 282 269 276 272 267 265 266 268 272 275 277 276 275 276 279
270 274 276 272 267 267 268 270 273 275 274 274 278 282 281 281 282 285 286 283 279 277 280 280 281 282 284 282 277 271 276 273 269 271 273 275 276 278 279 279 276 275 276
268 270 275 276 272 266 268 272 273 272 271 272 277 281 280 279 280 280 280 279 279 279 278 276 278 279 279 276 272 270 272 273 273 274 275 276 277 278 277 276 278 278 277
275 276 273 273 273 273 274 275 273 271 271 273 276 276 275 276 276 277 277 278 280 279 278 277 277 278 277 276 274 273 273 273 274 274 274 275 276 278 277 277 278 278 278
271 273 273 272 270 268 268 270 271 273 276 277 277 277 277 277 277 278 279 279 278 277 277 277 277 277 276 276 275 273 272 271 272 272 272 273 274 275 276 277 278 279 278
274 275 275 274 275 273 270 269 271 273 276 280 283 285 285 285 284 284 283 282 281 281 280 280 280 279 278 278 278 277 276 275 274 273 272 271 271 271 271 272 272 273 274
284 282 278 274 273 273 274 274 272 271 271 274 277 279 280 280 280 280 280 281 281 282 283 284 284 284 285 283 282 281 280 278 276 273 271 270 269 269 268 267 267 267 268
287 281 275 272 270 269 270 272 272 272 273 275 275 277 279 281 283 284 284 284 284 286 287 287 287 285 284 284 283 281 279 277 276 273 271 268 267 265 265 265 264 263 262
290 287 283 281 275 266 266 272 275 277 278 278 278 279 280 281 281 281 283 284 283 284 286 287 288 287 286 285 285 285 284 281 280 278 275 272 270 269 267 265 265 265 263
293 296 295 290 282 266 260 269 278 281 281 282 284 284 284 284 284 284 285 285 286 288 289 289 288 286 285 285 284 284 283 282 280 279 278 276 274 271 270 269 266 266 265
296 297 298 295 291 280 258 264 275 280 281 284 285 285 285 286 287 290 291 291 294 295 294 291 289 287 285 282 280 279 280 279 277 274 273 271 273 275 274 272 270 269 266
298 298 297 294 293 293 297 294 284 277 283 290 289 285 286 287 290 294 293 295 296 296 295 293 290 288 284 281 278 277 277 277 276 274 273 272 271 278 277 274 274 274 271
293 297 296 290 289 294 303 290 284 277 286 295 292 289 289 289 291 293 295 296 297 298 296 293 291 288 286 285 283 279 278 277 279 279 279 279 277 276 276 276 272 271 268
286 288 286 285 289 293 296 296 292 288 293 297 295 294 294 295 295 297 298 298 297 295 294 293 292 291 289 288 288 287 285 283 282 281 281 282 282 280 278 276 272 268 264
284 282 281 284 288 285 284 285 287 291 295 296 297 298 297 298 297 297 296 296 296 295 295 295 293 291 290 289 288 287 287 286 284 282 279 279 280 281 280 277 272 267 263
282 280 281 281 282 282 282 283 287 291 294 296 297 297 297 297 296 297 298 299 299 300 299 296 294 292 290 289 288 288 287 287 286 284 281 278 277 279 280 277 274 269 261
278 277 277 277 277 279 282 285 289 290 292 293 294 295 294 295 296 298 300 300 299 299 298 297 295 294 292 290 289 288 288 288 288 284 283 286 283 281 278 276 272 268 266
Height
5908 5907 5906 5904 5903 5902 5902 5904 5903 5903 5903 5903 5904 5903 5903 5903 5903 5902 5901 5901 5901 5901 5901 5901 5901 5900 5900 5900 5900 5900 5899 5899 5899 5899 5898 5898 5897 5896 5895 5895 5895 5895 5894
5905 5904 5902 5901 5900 5900 5900 5901 5901 5900 5900 5899 5900 5901 5901 5901 5901 5900 5899 5899 5898 5898 5898 5898 5898 5898 5897 5897 5898 5898 5897 5897 5897 5896 5896 5895 5895 5894 5894 5893 5892 5891 5890
5903 5901 5898 5897 5897 5897 5897 5898 5897 5897 5897 5897 5897 5897 5897 5897 5898 5898 5898 5898 5897 5896 5895 5894 5895 5894 5894 5893 5894 5894 5894 5894 5894 5893 5893 5892 5892 5892 5891 5890 5890 5889 5889
5899 5897 5896 5894 5892 5892 5893 5894 5893 5894 5895 5895 5894 5894 5893 5894 5894 5894 5894 5894 5894 5893 5892 5891 5890 5890 5889 5888 5888 5889 5889 5890 5890 5889 5889 5889 5889 5889 5888 5887 5886 5885 5885
5895 5894 5893 5890 5889 5890 5891 5890 5892 5891 5891 5892 5891 5891 5891 5890 5890 5888 5889 5890 5890 5889 5888 5887 5886 5884 5884 5883 5883 5884 5884 5885 5886 5885 5885 5884 5884 5884 5884 5883 5882 5881 5881
5891 5891 5889 5888 5889 5888 5888 5886 5886 5886 5887 5888 5888 5887 5887 5886 5885 5885 5885 5885 5884 5883 5883 5883 5881 5879 5879 5878 5878 5879 5879 5880 5881 5880 5880 5880 5879 5879 5880 5879 5877 5877 5878
5888 5888 5886 5887 5888 5887 5887 5886 5885 5884 5885 5885 5884 5884 5882 5881 5881 5880 5879 5880 5879 5877 5876 5877 5877 5876 5873 5872 5872 5873 5873 5875 5874 5875 5874 5874 5874 5874 5874 5873 5873 5873 5873
5887 5886 5886 5886 5885 5885 5886 5885 5884 5883 5881 5881 5879 5879 5877 5876 5875 5875 5875 5874 5873 5872 5871 5872 5871 5869 5867 5868 5868 5868 5866 5867 5867 5867 5868 5868 5868 5868 5867 5867 5866 5866 5866
5884 5884 5884 5884 5883 5882 5881 5881 5880 5879 5877 5876 5875 5874 5873 5871 5870 5871 5870 5870 5869 5867 5866 5866 5864 5863 5861 5862 5862 5861 5861 5860 5860 5860 5861 5862 5862 5861 5860 5860 5859 5859 5858
5883 5882 5881 5880 5879 5879 5879 5878 5877 5876 5873 5872 5871 5869 5869 5867 5867 5866 5866 5865 5864 5862 5861 5860 5858 5857 5855 5854 5854 5854 5853 5853 5853 5853 5853 5854 5854 5853 5852 5852 5852 5850 5850
5882 5880 5879 5878 5877 5876 5875 5874 5873 5871 5869 5868 5866 5865 5863 5863 5863 5862 5861 5859 5858 5856 5854 5853 5852 5851 5850 5848 5848 5848 5847 5846 5846 5845 5844 5844 5845 5844 5844 5844 5844 5844 5844
5881 5879 5877 5876 5874 5872 5871 5870 5868 5866 5865 5863 5862 5861 5859 5858 5856 5856 5855 5854 5852 5849 5847 5846 5845 5844 5842 5842 5840 5840 5840 5838 5837 5837 5837 5836 5836 5835 5835 5835 5835 5835 5836
5877 5876 5874 5872 5870 5868 5867 5865 5863 5861 5860 5859 5858 5856 5854 5852 5851 5850 5849 5848 5846 5845 5843 5841 5839 5837 5836 5835 5833 5831 5830 5830 5829 5829 5829 5828 5827 5827 5826 5824 5824 5824 5825
5874 5873 5871 5869 5867 5865 5863 5861 5858 5857 5855 5853 5852 5850 5849 5848 5846 5845 5843 5841 5840 5839 5838 5836 5833 5830 5828 5827 5825 5823 5823 5822 5821 5820 5819 5818 5817 5817 5816 5814 5813 5813 5814
5871 5869 5868 5865 5863 5861 5859 5858 5856 5853 5851 5848 5846 5845 5843 5842 5840 5839 5837 5835 5833 5831 5829 5827 5824 5822 5821 5819 5817 5815 5813 5811 5810 5810 5810 5808 5808 5807 5806 5805 5804 5804 5804
5867 5865 5863 5859 5856 5855 5854 5853 5852 5849 5846 5844 5842 5840 5837 5835 5833 5831 5829 5826 5824 5822 5819 5816 5815 5813 5812 5810 5807 5805 5803 5801 5801 5800 5798 5797 5796 5795 5794 5793 5792 5792 5792
5861 5858 5854 5852 5850 5849 5848 5847 5845 5843 5841 5839 5837 5834 5832 5830 5828 5826 5823 5820 5817 5814 5811 5808 5805 5803 5800 5798 5796 5794 5792 5791 5790 5788 5787 5785 5783 5782 5781 5780 5779 5779 5778
5855 5851 5849 5847 5844 5842 5842 5840 5838 5836 5834 5832 5831 5829 5827 5824 5822 5819 5817 5814 5811 5807 5804 5801 5797 5794 5790 5786 5783 5781 5778 5776 5776 5774 5773 5773 5770 5769 5767 5766 5765 5764 5765
5851 5847 5844 5842 5837 5835 5835 5834 5832 5829 5827 5825 5824 5822 5820 5817 5813 5810 5808 5804 5801 5798 5795 5791 5788 5783 5778 5774 5771 5768 5765 5761 5760 5758 5755 5755 5754 5753 5751 5749 5749 5750 5750
5846 5843 5839 5835 5829 5826 5828 5827 5825 5823 5821 5818 5816 5813 5810 5807 5803 5800 5797 5795 5792 5788 5783 5779 5774 5770 5765 5761 5758 5756 5753 5749 5745 5743 5741 5740 5738 5737 5736 5733 5732 5733 5734
5841 5837 5832 5827 5822 5823 5819 5818 5814 5813 5812 5809 5807 5803 5800 5796 5793 5791 5788 5784 5781 5775 5770 5764 5759 5754 5750 5745 5741 5740 5739 5736 5731 5726 5726 5725 5725 5722 5718 5717 5716 5717 5716
5835 5829 5827 5822 5817 5812 5808 5807 5805 5802 5800 5799 5797 5794 5791 5787 5783 5779 5775 5769 5764 5757 5751 5746 5741 5736 5731 5724 5718 5716 5717 5717 5712 5707 5704 5701 5703 5703 5700 5698 5697 5698 5699
5831 5827 5821 5817 5810 5806 5802 5798 5797 5792 5788 5786 5784 5782 5778 5773 5768 5763 5758 5752 5747 5740 5733 5725 5719 5711 5707 5703 5695 5690 5687 5689 5686 5684 5682 5680 5678 5677 5675 5674 5674 5675 5677
5823 5821 5816 5811 5804 5801 5796 5792 5786 5781 5778 5776 5772 5767 5762 5758 5753 5748 5742 5736 5729 5721 5713 5706 5699 5691 5684 5679 5674 5667 5662 5662 5659 5657 5659 5658 5657 5654 5651 5649 5648 5650 5652
5814 5811 5808 5804 5798 5792 5788 5784 5779 5774 5769 5764 5759 5753 5748 5743 5737 5731 5724 5717 5709 5702 5694 5687 5679 5671 5664 5658 5655 5649 5643 5642 5639 5633 5635 5640 5639 5636 5633 5630 5629 5630 5631
5805 5802 5798 5794 5790 5786 5782 5777 5771 5765 5759 5754 5748 5743 5736 5729 5722 5715 5707 5699 5691 5684 5675 5667 5660 5653 5647 5642 5637 5632 5626 5623 5622 5617 5614 5621 5619 5616 5611 5610 5612 5613 5615